Branson, MO

9:32 PM CDT on May 23, 2017 (GMT -0500)
Branson

Weather History for KBBG - July, 2013

Change the Weather History Date:

Friday, July 5, 2013

  Actual Average (KHRO) Record (KHRO)
Temperature  
Mean Temperature 72 °F -  
Max Temperature 84 °F 86 °F 103 °F (1928)
Min Temperature 59 °F 66 °F 46 °F (1915)
Cooling Degree Days 6    
Growing Degree Days 22 (Base 50)    
Moisture  
Dew Point 57 °F    
Average Humidity 64    
Maximum Humidity 88    
Minimum Humidity 35    
Precipitation  
Precipitation 0.00 in - - ()
Sea Level Pressure  
Sea Level Pressure 30.04 in    
Wind  
Wind Speed 4 mph (SE)    
Max Wind Speed 16 mph    
Max Gust Speed 29 mph    
Visibility 10 miles    
Events Rain , Hail    
Averages and records for this station are not official NWS values.
T = Trace of Precipitation, MM = Missing Value Source: NWS Daily Summary

Daily Weather History Graph

Daily Weather History Graph

Search for Another Location

Airport or City:

Trip Planner

Search our weather history database for the weather conditions in past years. The results will help you decide how hot, cold, wet, or windy it might be!

Date:

Astronomy

Jul. 05, 2013 Rise Set
Actual Time 6:00 AM CDT 8:34 PM CDT
Civil Twilight 5:30 AM CDT 9:04 PM CDT
Nautical Twilight 4:52 AM CDT 9:42 PM CDT
Astronomical Twilight 4:10 AM CDT 10:23 PM CDT
Moon 3:58 AM CDT (7/5) 6:31 PM CDT (7/5)
Length of Visible Light 15h 34m
Length of Day
14h 34m
Waning Crescent, 6% of the Moon is Illuminated
Jul 5
Waning Crescent
Jul 8
New
Jul 15
First Quarter
Jul 22
Full
Jul 29
Last Quarter

Hourly Weather History & Observations

Time (CDT) Temp. Heat Index Dew Point Humidity Pressure Visibility Wind Dir Wind Speed Gust Speed Precip Events Conditions
12:15 AM 64.4 °F - 53.6 °F 68% 30.05 in 10.0 mi Calm Calm - N/A   Clear
12:35 AM 64.4 °F - 53.6 °F 68% 30.06 in 10.0 mi Calm Calm - N/A   Clear
12:55 AM 64.4 °F - 53.6 °F 68% 30.06 in 10.0 mi Calm Calm - N/A   Clear
1:15 AM 62.6 °F - 53.6 °F 72% 30.05 in 10.0 mi SSE 3.5 mph - N/A   Clear
1:35 AM 64.4 °F - 55.4 °F 73% 30.05 in 10.0 mi SSE 5.8 mph - N/A   Clear
1:55 AM 64.4 °F - 55.4 °F 73% 30.05 in 10.0 mi SE 5.8 mph - N/A   Clear
2:15 AM 64.4 °F - 53.6 °F 68% 30.05 in 10.0 mi SE 5.8 mph - N/A   Clear
2:35 AM 64.4 °F - 55.4 °F 73% 30.04 in 10.0 mi SSE 4.6 mph - N/A   Clear
2:55 AM 66.2 °F - 55.4 °F 68% 30.04 in 10.0 mi South 5.8 mph - N/A   Clear
3:15 AM 64.4 °F - 55.4 °F 73% 30.04 in 10.0 mi South 4.6 mph - N/A   Clear
3:35 AM 66.2 °F - 55.4 °F 68% 30.04 in 10.0 mi South 5.8 mph - N/A   Clear
3:55 AM 66.2 °F - 55.4 °F 68% 30.05 in 10.0 mi South 4.6 mph - N/A   Clear
4:15 AM 64.4 °F - 55.4 °F 73% 30.04 in 10.0 mi Calm Calm - N/A   Clear
4:35 AM 62.6 °F - 55.4 °F 77% 30.05 in 10.0 mi Calm Calm - N/A   Clear
4:55 AM 62.6 °F - 55.4 °F 77% 30.05 in 10.0 mi SE 4.6 mph - N/A   Clear
5:15 AM 62.6 °F - 55.4 °F 77% 30.06 in 10.0 mi ESE 3.5 mph - N/A   Clear
5:35 AM 60.8 °F - 55.4 °F 82% 30.06 in 10.0 mi Calm Calm - N/A   Clear
5:55 AM 59.0 °F - 55.4 °F 88% 30.06 in 10.0 mi Calm Calm - N/A   Clear
6:15 AM 59.0 °F - 55.4 °F 88% 30.07 in 10.0 mi Calm Calm - N/A   Clear
6:35 AM 59.0 °F - 55.4 °F 88% 30.07 in 10.0 mi Calm Calm - N/A   Clear
6:49 AM 60.8 °F - 55.4 °F 82% 30.07 in 10.0 mi Calm Calm - N/A   Mostly Cloudy
7:48 AM 66.2 °F - 57.2 °F 73% 30.08 in 10.0 mi Calm Calm - N/A   Mostly Cloudy
8:48 AM 69.8 °F - 57.2 °F 64% 30.10 in 10.0 mi Calm Calm - N/A   Clear
9:48 AM 75.2 °F - 57.2 °F 53% 30.09 in 10.0 mi Calm Calm - N/A   Clear
10:45 AM 80.6 °F 80.5 °F 55.4 °F 42% 30.09 in 10.0 mi Calm Calm - N/A   Clear
11:50 AM 82.4 °F 81.7 °F 55.4 °F 39% 30.08 in 10.0 mi ESE 5.8 mph - N/A   Scattered Clouds
12:45 PM 84.2 °F 83.0 °F 55.4 °F 37% 30.07 in 10.0 mi South 4.6 mph - N/A   Mostly Cloudy
1:45 PM 84.2 °F 82.8 °F 53.6 °F 35% 30.06 in 10.0 mi SE 5.8 mph - N/A   Scattered Clouds
2:51 PM 80.6 °F 81.5 °F 60.8 °F 51% 30.04 in 2.0 mi SE 15.0 mph 28.8 mph N/A Rain , Hail Rain
3:18 PM 71.6 °F - 60.8 °F 69% 30.05 in 10.0 mi ESE 16.1 mph - N/A   Mostly Cloudy
3:49 PM 77.0 °F - 66.2 °F 69% 30.04 in 10.0 mi East 9.2 mph - N/A   Mostly Cloudy
4:50 PM 82.4 °F 82.0 °F 57.2 °F 42% 30.03 in 10.0 mi ESE 9.2 mph - N/A   Scattered Clouds
5:50 PM 84.2 °F 83.5 °F 57.2 °F 40% 30.00 in 10.0 mi ESE 8.1 mph - N/A   Partly Cloudy
6:50 PM 82.4 °F 82.0 °F 57.2 °F 42% 30.00 in 10.0 mi South 9.2 mph - N/A   Scattered Clouds
7:45 PM 80.6 °F 80.8 °F 57.2 °F 45% 30.00 in 10.0 mi South 4.6 mph - N/A   Partly Cloudy
8:45 PM 75.2 °F - 59.0 °F 57% 30.00 in 10.0 mi SSE 4.6 mph - N/A   Partly Cloudy
8:55 PM 75.2 °F - 59.0 °F 57% 30.00 in 10.0 mi SE 5.8 mph - N/A   Clear
9:15 PM 73.4 °F - 59.0 °F 61% 30.00 in 10.0 mi SE 6.9 mph - N/A   Clear
9:35 PM 73.4 °F - 59.0 °F 61% 30.01 in 10.0 mi SE 6.9 mph - N/A   Clear
9:55 PM 71.6 °F - 60.8 °F 69% 30.02 in 10.0 mi SE 5.8 mph - N/A   Clear
10:15 PM 73.4 °F - 59.0 °F 61% 30.01 in 10.0 mi SE 8.1 mph - N/A   Clear
10:35 PM 73.4 °F - 59.0 °F 61% 30.02 in 10.0 mi ESE 8.1 mph - N/A   Clear
10:55 PM 71.6 °F - 59.0 °F 64% 30.03 in 10.0 mi ESE 8.1 mph - N/A   Clear
11:15 PM 71.6 °F - 59.0 °F 64% 30.03 in 10.0 mi SE 10.4 mph - N/A   Clear
11:35 PM 71.6 °F - 59.0 °F 64% 30.03 in 10.0 mi SE 10.4 mph - N/A   Clear
11:55 PM 71.6 °F - 60.8 °F 69% 30.03 in 10.0 mi SE 8.1 mph - N/A   Clear